Location: Newark
(39.6867°N, 100.6772°W)
Time: 23:03:05
(UTC+00:00)

Transit 2A - All Passes

Search period start: 17 October 2019 00:00
Search period end: 27 October 2019 00:00
Orbit: 600 x 959 km, 66.7° (Epoch: 17 October)

Date Brightness Start Highest point End Pass type
(mag) Time Alt. Az. Time Alt. Az. Time Alt. Az.
17 Oct - 01:51:55 10° S 01:57:01 36° ESE 02:01:42 10° NE visible
17 Oct - 03:35:20 10° WSW 03:40:11 31° NW 03:44:40 10° N visible
17 Oct - 10:39:57 10° N 10:43:17 21° NE 10:46:34 10° E visible
17 Oct - 12:22:30 10° NW 12:26:32 38° WSW 12:30:34 10° S visible
18 Oct - 01:18:35 10° SSE 01:23:01 24° ESE 01:27:08 10° ENE visible
18 Oct - 03:00:41 10° SW 03:05:59 45° WNW 03:10:48 10° NNE visible
18 Oct - 10:06:30 10° N 10:08:55 14° NE 10:11:20 10° E visible
18 Oct - 11:48:12 10° NW 11:52:30 62° WSW 11:56:48 10° SSE visible
19 Oct - 00:45:45 10° SE 00:49:03 16° ESE 00:52:12 10° ENE visible
19 Oct - 02:26:17 10° SW 02:31:49 66° WNW 02:36:49 10° NNE visible
19 Oct - 04:14:36 10° NW 04:15:48 11° NW 04:16:59 10° NNW visible
19 Oct - 11:14:03 10° NNW 11:18:25 81° ENE 11:22:47 10° SSE visible
20 Oct - 00:14:47 10° ESE 00:15:07 10° ESE 00:15:28 10° E daylight
20 Oct - 01:52:06 10° SSW 01:57:42 85° ESE 02:02:45 10° NNE visible
20 Oct - 03:38:23 10° W 03:41:23 15° NW 03:44:14 10° N visible
20 Oct - 10:40:02 10° NNW 10:44:17 50° ENE 10:48:31 10° SE visible
20 Oct - 12:24:44 10° WNW 12:26:55 14° WSW 12:29:06 10° SW visible
21 Oct - 01:18:09 10° SSW 01:23:37 57° ESE 01:28:34 10° NE visible
21 Oct - 03:03:03 10° W 03:07:02 21° NW 03:10:47 10° N visible
21 Oct - 10:06:08 10° N 10:10:05 33° NE 10:14:01 10° ESE visible
21 Oct - 11:49:39 10° WNW 11:52:59 22° WSW 11:56:21 10° SSW visible
22 Oct - 00:44:25 10° S 00:49:33 38° ESE 00:54:15 10° NE visible
22 Oct - 02:28:06 10° WSW 02:32:46 29° NW 02:37:05 10° N visible
22 Oct - 09:32:22 10° N 09:35:50 22° NE 09:39:15 10° ESE visible
22 Oct - 11:15:04 10° NW 11:19:01 34° WSW 11:22:59 10° S visible
23 Oct - 00:11:01 10° SSE 00:15:33 26° ESE 00:19:45 10° NE visible
23 Oct - 01:53:24 10° SW 01:58:32 41° WNW 02:03:14 10° NNE visible
23 Oct - 08:58:51 10° N 09:01:30 16° NE 09:04:08 10° E night (unlit)
23 Oct - 10:40:44 10° NW 10:44:59 56° WSW 10:49:17 10° SSE visible
23 Oct - 23:38:03 10° SSE 23:41:34 17° ESE 23:44:53 10° ENE daylight
24 Oct - 01:18:57 10° SW 01:24:22 60° WNW 01:29:18 10° NNE visible
24 Oct - 08:26:00 10° NNE 08:27:06 11° NE 08:28:11 10° ENE night (unlit)
24 Oct - 10:06:33 10° NNW 10:10:55 89° ENE 10:15:18 10° SSE visible
24 Oct - 23:06:13 10° ESE 23:07:38 11° ESE 23:09:02 10° E daylight
25 Oct - 00:44:42 10° SSW 00:50:15 88° WNW 00:55:15 10° NNE visible
25 Oct - 02:31:23 10° WNW 02:33:59 14° NW 02:36:30 10° NNW visible
25 Oct - 09:32:30 10° NNW 09:36:48 56° ENE 09:41:05 10° SE night (unlit)
25 Oct - 11:17:36 10° W 11:19:23 12° WSW 11:21:11 10° SW night (unlit)
26 Oct - 00:10:42 10° SSW 00:16:09 62° ESE 00:21:05 10° NE visible
26 Oct - 01:55:54 10° W 01:59:38 19° NW 02:03:08 10° N visible
26 Oct - 08:58:35 10° NNW 09:02:37 36° NE 09:06:39 10° ESE night (unlit)
26 Oct - 10:42:18 10° WNW 10:45:28 20° WSW 10:48:39 10° SSW night (unlit)
26 Oct - 23:36:56 10° S 23:42:05 41° ESE 23:46:48 10° NE daylight
